DW1256 Weather Reports


Display with metric or nautical units.
time (UTC)temp
F
wind
direction
speed
MPH
gust
MPH
rain 1hr
in
rain 24hr
in
rain mn
in
humidity
%
barometer
mb
20260904045044 79 180 0.0 4.0 0.00 0.00 0.00 68 1012.9
20260904044041 79 142 0.0 0.0 0.00 0.00 0.00 68 1012.8
20260904043542 79 144 0.0 0.0 0.00 0.00 0.00 68 1012.8
20260904042538 79 157 0.0 0.0 0.00 0.00 0.00 67 1012.8
20260904041033 80 155 1.0 4.0 0.00 0.00 0.00 67 1012.8
20260904040534 80 175 1.0 4.0 0.00 0.00 0.00 66 1012.7
20260904035531 80 141 2.0 5.0 0.00 0.00 0.00 66 1012.6
20260904035030 80 131 1.0 4.0 0.00 0.00 0.00 66 1012.7
20260904034531 81 139 0.0 3.0 0.00 0.00 0.00 66 1012.6
20260904034033 81 142 0.0 0.0 0.00 0.00 0.00 65 1012.6
20260904033531 81 129 0.0 1.0 0.00 0.00 0.00 65 1012.7
20260904033030 81 158 1.0 4.0 0.00 0.00 0.00 65 1012.6
20260904032530 81 163 1.0 4.0 0.00 0.00 0.00 65 1012.5
20260904032027 81 115 0.0 2.0 0.00 0.00 0.00 65 1012.5
20260904031524 81 115 0.0 2.0 0.00 0.00 0.00 65 1012.5
20260904025524 82 220 1.0 3.0 0.00 0.00 0.00 64 1012.5
20260904025025 82 155 1.0 5.0 0.00 0.00 0.00 64 1012.5
20260904024525 82 147 1.0 5.0 0.00 0.00 0.00 64 1012.5
20260904024028 82 146 1.0 6.0 0.00 0.00 0.00 64 1012.5
20260904023522 82 148 2.0 6.0 0.00 0.00 0.00 64 1012.4
20260904023022 83 152 1.0 4.0 0.00 0.00 0.00 63 1012.5
20260904022521 83 153 1.0 4.0 0.00 0.00 0.00 63 1012.5
20260904021522 83 159 1.0 4.0 0.00 0.00 0.00 63 1012.4
20260904021021 83 148 1.0 5.0 0.00 0.00 0.00 63 1012.5
20260904020521 83 162 1.0 5.0 0.00 0.00 0.00 63 1012.4
20260904020023 83 160 1.0 4.0 0.00 0.00 0.00 63 1012.4
20260904015522 83 155 0.0 3.0 0.00 0.00 0.00 63 1012.3
20260904015017 83 155 0.0 2.0 0.00 0.00 0.00 63 1012.3
20260904014516 83 155 0.0 2.0 0.00 0.00 0.00 63 1012.4
20260904014019 84 163 0.0 4.0 0.00 0.00 0.00 63 1012.4
20260904013517 84 163 1.0 4.0 0.00 0.00 0.00 63 1012.3
20260904013018 84 164 0.0 4.0 0.00 0.00 0.00 63 1012.2
20260904012021 85 170 0.0 1.0 0.00 0.00 0.00 63 1012.0
20260904011517 85 170 0.0 0.0 0.00 0.00 0.00 62 1012.0
20260904010515 86 170 0.0 0.0 0.00 0.00 0.00 60 1012.0
20260904010013 86 170 0.0 2.0 0.00 0.00 0.00 60 1011.9
20260904005513 86 170 1.0 4.0 0.00 0.00 0.00 60 1011.8
20260904005012 87 169 1.0 4.0 0.00 0.00 0.00 60 1011.7
20260904004515 87 166 1.0 4.0 0.00 0.00 0.00 59 1011.7
20260904004015 87 166 1.0 3.0 0.00 0.00 0.00 59 1011.7
20260904003516 87 0 1.0 4.0 0.00 0.00 0.00 58 1011.7
20260904003016 88 165 1.0 4.0 0.00 0.00 0.00 58 1011.6
20260904002012 88 163 1.0 2.0 0.00 0.00 0.00 58 1011.6
20260904001512 89 163 0.0 2.0 0.00 0.00 0.00 57 1011.6
20260904001012 89 127 0.0 0.0 0.00 0.00 0.00 57 1011.7
20260904000011 90 198 0.0 0.0 0.00 0.00 0.00 55 1011.7
20260903235510 91 198 0.0 0.0 0.00 0.00 0.00 54 1011.9
20260903235011 92 198 0.0 0.0 0.00 0.00 0.00 53 1011.9
20260903234510 93 198 0.0 0.0 0.00 0.00 0.00 52 1011.9
20260903234010 93 198 0.0 0.0 0.00 0.00 0.00 50 1011.8
20260903233509 93 198 0.0 1.0 0.00 0.00 0.00 49 1011.8
20260903233007 93 198 0.0 1.0 0.00 0.00 0.00 50 1011.8
20260903232505 93 198 0.0 2.0 0.00 0.00 0.00 51 1011.8
20260903231506 92 281 0.0 1.0 0.00 0.00 0.00 52 1011.7
20260903231005 92 281 1.0 4.0 0.00 0.00 0.00 51 1011.7
20260903230006 92 164 0.0 2.0 0.00 0.00 0.00 51 1011.7
20260903225506 93 202 1.0 2.0 0.00 0.00 0.00 50 1011.7
20260903225007 93 171 1.0 3.0 0.00 0.00 0.00 50 1011.7
20260903224505 93 170 1.0 4.0 0.00 0.00 0.00 50 1011.8
20260903224004 94 215 1.0 4.0 0.00 0.00 0.00 47 1011.7
20260903223505 94 242 1.0 6.0 0.00 0.00 0.00 47 1011.7
20260903222506 94 239 1.0 6.0 0.00 0.00 0.00 46 1011.8
20260903221505 94 263 1.0 5.0 0.00 0.00 0.00 45 1011.6
20260903221004 94 227 1.0 4.0 0.00 0.00 0.00 45 1011.6
20260903220506 94 151 1.0 5.0 0.00 0.00 0.00 44 1011.6
20260903220006 95 171 1.0 5.0 0.00 0.00 0.00 43 1011.6
20260903215505 95 260 1.0 4.0 0.00 0.00 0.00 43 1011.6
20260903215010 96 273 2.0 9.0 0.00 0.00 0.00 43 1011.6
20260903214004 96 230 2.0 8.0 0.00 0.00 0.00 40 1011.7
20260903213503 96 184 2.0 8.0 0.00 0.00 0.00 41 1011.6
20260903213004 96 272 3.0 8.0 0.00 0.00 0.00 41 1011.7
20260903212503 95 283 4.0 9.0 0.00 0.00 0.00 42 1011.7
20260903212004 96 293 2.0 9.0 0.00 0.00 0.00 40 1011.7
20260903211504 97 305 3.0 9.0 0.00 0.00 0.00 42 1011.7
20260903211000 96 255 4.0 11.0 0.00 0.00 0.00 41 1011.7
20260903210501 96 305 4.0 12.0 0.00 0.00 0.00 39 1011.7
20260903210003 96 256 5.0 12.0 0.00 0.00 0.00 40 1011.7
20260903205501 96 295 4.0 8.0 0.00 0.00 0.00 41 1011.8
20260903204956 96 282 3.0 8.0 0.00 0.00 0.00 42 1011.7
20260903203455 96 255 3.0 8.0 0.00 0.00 0.00 42 1011.8
20260903202954 95 252 4.0 10.0 0.00 0.00 0.00 43 1011.9
20260903202455 95 211 4.0 10.0 0.00 0.00 0.00 45 1011.9
20260903201454 93 264 2.0 6.0 0.00 0.00 0.00 46 1011.9
20260903200952 94 264 1.0 4.0 0.00 0.00 0.00 45 1012.0
20260903200456 94 236 2.0 4.0 0.00 0.00 0.00 45 1012.1
20260903195950 94 273 2.0 8.0 0.00 0.00 0.00 43 1012.2
20260903194950 96 252 3.0 11.0 0.00 0.00 0.00 43 1012.2
20260903193954 97 222 4.0 12.0 0.00 0.00 0.00 41 1012.2
20260903193446 97 274 2.0 12.0 0.00 0.00 0.00 40 1012.2
20260903192442 96 285 3.0 9.0 0.00 0.00 0.00 41 1012.3
20260903191940 96 272 3.0 8.0 0.00 0.00 0.00 41 1012.4
20260903191441 96 256 2.0 8.0 0.00 0.00 0.00 42 1012.5
20260903190941 96 236 2.0 9.0 0.00 0.00 0.00 41 1012.5
20260903190440 96 259 4.0 11.0 0.00 0.00 0.00 42 1012.6
20260903185941 95 271 5.0 11.0 0.00 0.00 0.00 42 1012.6
20260903185442 95 238 6.0 13.0 0.00 0.00 0.00 44 1012.6
20260903184942 95 294 5.0 13.0 0.00 0.00 0.00 41 1012.7
20260903183940 95 236 5.0 11.0 0.00 0.00 0.00 43 1012.8
20260903182944 95 254 5.0 12.0 0.00 0.00 0.00 44 1012.9
20260903182443 94 293 5.0 13.0 0.00 0.00 0.00 44 1012.9
20260903181937 94 244 5.0 13.0 0.00 0.00 0.00 44 1013.0
20260903181432 95 265 5.0 13.0 0.00 0.00 0.00 42 1013.0
20260903180927 94 280 5.0 13.0 0.00 0.00 0.00 44 1013.1
20260903180427 94 291 4.0 11.0 0.00 0.00 0.00 44 1013.1
20260903175927 95 286 4.0 10.0 0.00 0.00 0.00 45 1013.1
20260903175425 94 256 5.0 10.0 0.00 0.00 0.00 46 1013.1
20260903174925 93 262 4.0 11.0 0.00 0.00 0.00 45 1013.1
20260903174425 94 246 4.0 11.0 0.00 0.00 0.00 44 1013.1
20260903173922 94 292 5.0 11.0 0.00 0.00 0.00 47 1013.1
20260903173422 93 227 5.0 11.0 0.00 0.00 0.00 46 1013.3
20260903172921 93 280 3.0 9.0 0.00 0.00 0.00 44 1013.1
20260903172422 94 287 3.0 9.0 0.00 0.00 0.00 46 1013.1
20260903171922 94 248 3.0 8.0 0.00 0.00 0.00 47 1013.1
20260903171419 93 227 3.0 9.0 0.00 0.00 0.00 48 1013.1
20260903170921 93 194 3.0 11.0 0.00 0.00 0.00 47 1013.2
20260903170423 94 245 3.0 13.0 0.00 0.00 0.00 46 1013.2
20260903165918 93 288 2.0 13.0 0.00 0.00 0.00 46 1013.2
20260903165419 93 244 3.0 10.0 0.00 0.00 0.00 49 1013.3
20260903164921 92 261 3.0 10.0 0.00 0.00 0.00 48 1013.3
20260903164414 92 269 3.0 10.0 0.00 0.00 0.00 47 1013.2
20260903163914 92 281 3.0 10.0 0.00 0.00 0.00 47 1013.3
20260903163413 91 275 4.0 10.0 0.00 0.00 0.00 48 1013.4
20260903162913 91 267 4.0 10.0 0.00 0.00 0.00 48 1013.4
20260903162412 92 242 2.0 7.0 0.00 0.00 0.00 47 1013.4
20260903161916 92 281 2.0 7.0 0.00 0.00 0.00 48 1013.4
20260903161412 91 238 3.0 8.0 0.00 0.00 0.00 49 1013.4
20260903160910 91 145 4.0 10.0 0.00 0.00 0.00 51 1013.5
20260903160409 91 275 3.0 10.0 0.00 0.00 0.00 50 1013.5
20260903155909 91 317 2.0 5.0 0.00 0.00 0.00 50 1013.5
20260903155408 90 144 2.0 5.0 0.00 0.00 0.00 49 1013.6
20260903154911 90 167 2.0 7.0 0.00 0.00 0.00 49 1013.7
20260903154408 91 222 2.0 7.0 0.00 0.00 0.00 49 1013.7
20260903153910 89 275 2.0 7.0 0.00 0.00 0.00 51 1013.7
20260903153409 89 250 2.0 5.0 0.00 0.00 0.00 50 1013.7
20260903152907 89 265 2.0 9.0 0.00 0.00 0.00 52 1013.6
20260903152408 88 236 2.0 9.0 0.00 0.00 0.00 50 1013.6
20260903151909 88 193 2.0 8.0 0.00 0.00 0.00 52 1013.6
20260903151404 88 263 2.0 8.0 0.00 0.00 0.00 51 1013.6
20260903150857 88 200 2.0 7.0 0.00 0.00 0.00 53 1013.7
20260903150353 88 251 2.0 5.0 0.00 0.00 0.00 53 1013.5
20260903145845 89 320 1.0 5.0 0.00 0.00 0.00 52 1013.6
20260903145339 89 164 1.0 5.0 0.00 0.00 0.00 53 1013.5
20260903143318 86 142 2.0 6.0 0.00 0.00 0.00 56 1013.4
20260903142810 86 273 2.0 6.0 0.00 0.00 0.00 55 1013.4
20260903141757 85 146 2.0 6.0 0.00 0.00 0.00 56 1013.4
20260903140746 85 155 2.0 10.0 0.00 0.00 0.00 56 1013.5
20260903140240 84 214 3.0 10.0 0.00 0.00 0.00 57 1013.5
20260903135734 84 161 2.0 6.0 0.00 0.00 0.00 58 1013.5
20260903134722 83 224 1.0 5.0 0.00 0.00 0.00 59 1013.5
20260903133709 83 213 1.0 4.0 0.00 0.00 0.00 60 1013.5
20260903133205 82 190 1.0 4.0 0.00 0.00 0.00 61 1013.6
20260903132658 81 142 1.0 6.0 0.00 0.00 0.00 61 1013.6
20260903132152 81 185 1.0 6.0 0.00 0.00 0.00 62 1013.6
20260903131646 80 215 1.0 6.0 0.00 0.00 0.00 63 1013.5
20260903131140 78 184 1.0 5.0 0.00 0.00 0.00 67 1013.6
20260903130634 77 182 1.0 5.0 0.00 0.00 0.00 69 1013.6
20260903130127 76 210 1.0 4.0 0.00 0.00 0.00 69 1013.6
20260903125115 76 167 0.0 5.0 0.00 0.00 0.00 70 1013.7
20260903124610 75 175 0.0 0.0 0.00 0.00 0.00 70 1013.7
20260903124108 75 173 0.0 3.0 0.00 0.00 0.00 70 1013.8
20260903123558 75 173 1.0 4.0 0.00 0.00 0.00 70 1013.8
20260903123052 75 173 1.0 4.0 0.00 0.00 0.00 70 1013.8
20260903122545 74 172 1.0 4.0 0.00 0.00 0.00 70 1013.8
20260903121533 74 162 2.0 5.0 0.00 0.00 0.00 70 1013.8
20260903121030 74 186 1.0 4.0 0.00 0.00 0.00 70 1013.8
20260903120522 74 171 0.0 4.0 0.00 0.00 0.00 70 1013.8
20260903120015 74 171 0.0 2.0 0.00 0.00 0.00 70 1013.7
20260903115511 74 134 0.0 0.0 0.00 0.00 0.00 69 1013.6
20260903115003 74 164 0.0 0.0 0.00 0.00 0.00 69 1013.7
20260903113951 74 161 0.0 0.0 0.00 0.00 0.00 69 1013.7
20260903113445 74 163 0.0 0.0 0.00 0.00 0.00 69 1013.7
20260903112940 74 163 0.0 0.0 0.00 0.00 0.00 69 1013.7
20260903112433 74 164 0.0 0.0 0.00 0.00 0.00 69 1013.7
20260903111929 74 163 0.0 0.0 0.00 0.00 0.00 69 1013.7
20260903111421 74 163 0.0 0.0 0.00 0.00 0.00 69 1013.6
20260903110916 74 163 0.0 0.0 0.00 0.00 0.00 69 1013.6
20260903110409 74 163 0.0 0.0 0.00 0.00 0.00 69 1013.6
20260903105904 74 163 0.0 0.0 0.00 0.00 0.00 69 1013.5
20260903105400 74 163 0.0 0.0 0.00 0.00 0.00 69 1013.5
20260903104346 74 160 0.0 0.0 0.00 0.00 0.00 68 1013.5
20260903103841 74 155 0.0 0.0 0.00 0.00 0.00 68 1013.4
20260903103333 74 170 0.0 0.0 0.00 0.00 0.00 68 1013.4
20260903102829 74 171 0.0 0.0 0.00 0.00 0.00 68 1013.5
20260903101311 75 170 0.0 0.0 0.00 0.00 0.00 68 1013.4
20260903100804 75 244 0.0 0.0 0.00 0.00 0.00 68 1013.5
20260903100258 75 244 0.0 1.0 0.00 0.00 0.00 68 1013.5
20260903095753 75 173 0.0 3.0 0.00 0.00 0.00 68 1013.4
20260903095245 75 141 0.0 3.0 0.00 0.00 0.00 68 1013.3
20260903094739 75 232 0.0 0.0 0.00 0.00 0.00 68 1013.4
20260903094235 75 232 0.0 0.0 0.00 0.00 0.00 68 1013.3
20260903093728 75 233 0.0 0.0 0.00 0.00 0.00 68 1013.4
20260903093221 75 235 0.0 1.0 0.00 0.00 0.00 67 1013.4
20260903092717 75 198 0.0 4.0 0.00 0.00 0.00 67 1013.4
20260903092209 75 198 0.0 4.0 0.00 0.00 0.00 67 1013.3
20260903091704 75 149 0.0 2.0 0.00 0.00 0.00 67 1013.3
20260903091159 76 149 0.0 3.0 0.00 0.00 0.00 67 1013.3
20260903090651 76 199 0.0 4.0 0.00 0.00 0.00 67 1013.3
20260903090146 76 171 0.0 4.0 0.00 0.00 0.00 67 1013.2
20260903085639 76 179 0.0 2.0 0.00 0.00 0.00 67 1013.1
20260903084121 76 157 0.0 5.0 0.00 0.00 0.00 67 1013.0
20260903083616 76 220 0.0 1.0 0.00 0.00 0.00 67 1013.1
20260903083109 76 221 0.0 2.0 0.00 0.00 0.00 67 1013.2
20260903082604 76 221 0.0 2.0 0.00 0.00 0.00 67 1013.2
20260903081553 76 167 0.0 0.0 0.00 0.00 0.00 67 1013.2
20260903081045 76 130 0.0 0.0 0.00 0.00 0.00 67 1013.2
20260903080539 76 284 0.0 0.0 0.00 0.00 0.00 67 1013.1
20260903080033 76 221 0.0 0.0 0.00 0.00 0.00 66 1013.2
20260903075528 76 332 0.0 0.0 0.00 0.00 0.00 66 1013.2
20260903074517 76 259 0.0 0.0 0.00 0.00 0.00 66 1013.3
20260903074009 76 186 0.0 2.0 0.00 0.00 0.00 66 1013.3
20260903073504 76 181 0.0 2.0 0.00 0.00 0.00 66 1013.2
20260903072957 76 181 0.0 2.0 0.00 0.00 0.00 66 1013.2
20260903072455 76 134 0.0 2.0 0.00 0.00 0.00 66 1013.2
20260903071946 76 134 0.0 2.0 0.00 0.00 0.00 66 1013.2
20260903071439 77 188 0.0 2.0 0.00 0.00 0.00 66 1013.2
20260903070933 77 188 0.0 3.0 0.00 0.00 0.00 65 1013.1
20260903070427 77 246 0.0 3.0 0.00 0.00 0.00 65 1013.1
20260903064906 77 261 0.0 2.0 0.00 0.00 0.00 65 1013.1
20260903064401 77 183 1.0 5.0 0.00 0.00 0.00 65 1013.2
20260903063853 77 180 1.0 5.0 0.00 0.00 0.00 65 1013.2
20260903063347 77 181 1.0 4.0 0.00 0.00 0.00 65 1013.1
20260903062842 77 169 0.0 4.0 0.00 0.00 0.00 65 1013.1
20260903061831 78 234 0.0 0.0 0.00 0.00 0.00 65 1013.1
20260903061324 78 171 0.0 0.0 0.00 0.00 0.00 65 1013.1
20260903060817 78 182 0.0 2.0 0.00 0.00 0.00 65 1013.0
20260903060313 78 284 0.0 4.0 0.00 0.00 0.00 65 1013.0
20260903055301 78 166 0.0 5.0 0.00 0.00 0.00 65 1013.0
20260903054758 78 165 0.0 4.0 0.00 0.00 0.00 65 1013.0
20260903054301 78 96 0.0 4.0 0.00 0.00 0.00 65 1013.0
20260903053757 78 151 1.0 4.0 0.00 0.00 0.00 65 1012.9
20260903053254 78 140 1.0 6.0 0.00 0.00 0.00 65 1012.9
20260903052757 78 150 1.0 6.0 0.00 0.00 0.00 65 1012.9
20260903052252 79 171 0.0 4.0 0.00 0.00 0.00 65 1012.9
20260903051751 79 161 0.0 0.0 0.00 0.00 0.00 65 1012.9
20260903051252 79 163 1.0 4.0 0.00 0.00 0.00 65 1012.9
20260903050750 79 162 1.0 4.0 0.00 0.00 0.00 65 1012.9
20260903050251 79 165 1.0 4.0 0.00 0.00 0.00 65 1012.9